Location: Góry Miechowskie
(50.3599°N, 20.1803°E)
Time: 22:05:19
(UTC+00:00)

Cosmos 2219 - Pass Details

Date: 27 September 2024
Orbit: 831 x 860 km, 71.1° (Epoch: 13 October)

Event Time Altitude Azimuth Distance (km) Brightness Sun altitude
Exits shadow 02:09:02 26° 180° (S) 1,614 4.4 -23.1°
Maximum altitude 02:12:08 57° 112° (ESE) 1,005 3.7 -22.7°
Drops below altitude 10° 02:17:45 10° 36° (NE) 2,503 6.5 -21.9°
Sets 02:20:15 0° 32° (NNE) 3,446 7.3 -21.5°
